Year,Month,Day,Hour,Minute,Value (Times are PST for temperature in C)
2013,03,31,00,00,5.90
2013,03,31,00,01,5.90
2013,03,31,00,02,6.00
2013,03,31,00,03,5.90
2013,03,31,00,04,6.00
2013,03,31,00,05,5.90
2013,03,31,00,06,6.00
2013,03,31,00,07,6.00
2013,03,31,00,08,6.00
2013,03,31,00,09,5.90
2013,03,31,00,10,5.90
2013,03,31,00,11,5.90
2013,03,31,00,12,5.90
2013,03,31,00,13,5.90
2013,03,31,00,14,5.90
2013,03,31,00,15,5.90
2013,03,31,00,16,5.90
2013,03,31,00,17,5.80
2013,03,31,00,18,5.80
2013,03,31,00,19,5.80
2013,03,31,00,20,5.80
2013,03,31,00,21,5.80
2013,03,31,00,22,5.80
2013,03,31,00,23,5.80
2013,03,31,00,24,5.80
2013,03,31,00,25,5.80
2013,03,31,00,26,5.80
2013,03,31,00,27,5.80
2013,03,31,00,28,5.80
2013,03,31,00,29,5.80
2013,03,31,00,30,5.70
2013,03,31,00,31,5.70
2013,03,31,00,32,5.70
2013,03,31,00,33,5.70
2013,03,31,00,34,5.70
2013,03,31,00,35,5.70
2013,03,31,00,36,5.70
2013,03,31,00,37,5.70
2013,03,31,00,38,5.60
2013,03,31,00,39,5.60
2013,03,31,00,40,5.60
2013,03,31,00,41,5.60
2013,03,31,00,42,5.60
2013,03,31,00,43,5.60
2013,03,31,00,44,5.50
2013,03,31,00,45,5.50
2013,03,31,00,46,5.50
2013,03,31,00,47,5.50
2013,03,31,00,48,5.50
2013,03,31,00,49,5.50
2013,03,31,00,50,5.50
2013,03,31,00,51,5.50
2013,03,31,00,52,5.50
2013,03,31,00,53,5.50
2013,03,31,00,54,5.50
2013,03,31,00,55,5.50
2013,03,31,00,56,5.50
2013,03,31,00,57,5.40
2013,03,31,00,58,5.40
2013,03,31,00,59,5.40
2013,03,31,01,00,5.40
2013,03,31,01,01,5.40
2013,03,31,01,02,5.30
2013,03,31,01,03,5.30
2013,03,31,01,04,5.30
2013,03,31,01,05,5.30
2013,03,31,01,06,5.30
2013,03,31,01,07,5.30
2013,03,31,01,08,5.20
2013,03,31,01,09,5.20
2013,03,31,01,10,5.20
2013,03,31,01,11,5.20
2013,03,31,01,12,5.20
2013,03,31,01,13,5.20
2013,03,31,01,14,5.20
2013,03,31,01,15,5.20
2013,03,31,01,16,5.20
2013,03,31,01,17,5.10
2013,03,31,01,18,5.10
2013,03,31,01,19,5.20
2013,03,31,01,20,5.20
2013,03,31,01,21,5.20
2013,03,31,01,22,5.20
2013,03,31,01,23,5.20
2013,03,31,01,24,5.20
2013,03,31,01,25,5.20
2013,03,31,01,26,5.10
2013,03,31,01,27,5.10
2013,03,31,01,28,5.20
2013,03,31,01,29,5.20
2013,03,31,01,30,5.10
2013,03,31,01,31,5.20
2013,03,31,01,32,5.20
2013,03,31,01,33,5.20
2013,03,31,01,34,5.20
2013,03,31,01,35,5.20
2013,03,31,01,36,5.20
2013,03,31,01,37,5.20
2013,03,31,01,38,5.20
2013,03,31,01,39,5.20
2013,03,31,01,40,5.20
2013,03,31,01,41,5.10
2013,03,31,01,42,5.10
2013,03,31,01,43,5.10
2013,03,31,01,44,5.10
2013,03,31,01,45,5.10
2013,03,31,01,46,5.10
2013,03,31,01,47,5.10
2013,03,31,01,48,5.10
2013,03,31,01,49,5.10
2013,03,31,01,50,5.10
2013,03,31,01,51,5.10
2013,03,31,01,52,5.10
2013,03,31,01,53,5.00
2013,03,31,01,54,5.00
2013,03,31,01,55,5.00
2013,03,31,01,56,5.00
2013,03,31,01,57,4.90
2013,03,31,01,58,4.90
2013,03,31,01,59,4.90
2013,03,31,02,00,4.90
2013,03,31,02,01,4.80
2013,03,31,02,02,4.80
2013,03,31,02,03,4.80
2013,03,31,02,04,4.80
2013,03,31,02,05,4.80
2013,03,31,02,06,4.80
2013,03,31,02,07,4.80
2013,03,31,02,08,4.80
2013,03,31,02,09,4.80
2013,03,31,02,10,4.70
2013,03,31,02,11,4.70
2013,03,31,02,12,4.70
2013,03,31,02,13,4.70
2013,03,31,02,14,4.70
2013,03,31,02,15,4.70
2013,03,31,02,16,4.70
2013,03,31,02,17,4.70
2013,03,31,02,18,4.70
2013,03,31,02,19,4.70
2013,03,31,02,20,4.70
2013,03,31,02,21,4.70
2013,03,31,02,22,4.60
2013,03,31,02,23,4.60
2013,03,31,02,24,4.60
2013,03,31,02,25,4.60
2013,03,31,02,26,4.60
2013,03,31,02,27,4.60
2013,03,31,02,28,4.50
2013,03,31,02,29,4.50
2013,03,31,02,30,4.50
2013,03,31,02,31,4.50
2013,03,31,02,32,4.50
2013,03,31,02,33,4.50
2013,03,31,02,34,4.40
2013,03,31,02,35,4.40
2013,03,31,02,36,4.40
2013,03,31,02,37,4.40
2013,03,31,02,38,4.40
2013,03,31,02,39,4.40
2013,03,31,02,40,4.40
2013,03,31,02,41,4.40
2013,03,31,02,42,4.40
2013,03,31,02,43,4.40
2013,03,31,02,44,4.30
2013,03,31,02,45,4.30
2013,03,31,02,46,4.30
2013,03,31,02,47,4.30
2013,03,31,02,48,4.30
2013,03,31,02,49,4.30
2013,03,31,02,50,4.30
2013,03,31,02,51,4.30
2013,03,31,02,52,4.30
2013,03,31,02,53,4.30
2013,03,31,02,54,4.30
2013,03,31,02,55,4.30
2013,03,31,02,56,4.30
2013,03,31,02,57,4.30
2013,03,31,02,58,4.30
2013,03,31,02,59,4.30
2013,03,31,03,00,4.30
2013,03,31,03,01,4.30
2013,03,31,03,02,4.30
2013,03,31,03,03,4.30
2013,03,31,03,04,4.30
2013,03,31,03,05,4.20
2013,03,31,03,06,4.20
2013,03,31,03,07,4.20
2013,03,31,03,08,4.20
2013,03,31,03,09,4.20
2013,03,31,03,10,4.20
2013,03,31,03,11,4.20
2013,03,31,03,12,4.20
2013,03,31,03,13,4.20
2013,03,31,03,14,4.10
2013,03,31,03,15,4.10
2013,03,31,03,16,4.10
2013,03,31,03,17,4.00
2013,03,31,03,18,4.00
2013,03,31,03,19,4.00
2013,03,31,03,20,4.00
2013,03,31,03,21,4.00
2013,03,31,03,22,4.00
2013,03,31,03,23,4.00
2013,03,31,03,24,4.00
2013,03,31,03,25,4.00
2013,03,31,03,26,4.00
2013,03,31,03,27,4.00
2013,03,31,03,28,4.00
2013,03,31,03,29,4.00
2013,03,31,03,30,4.00
2013,03,31,03,31,4.00
2013,03,31,03,32,4.00
2013,03,31,03,33,4.00
2013,03,31,03,34,4.00
2013,03,31,03,35,4.00
2013,03,31,03,36,4.00
2013,03,31,03,37,4.00
2013,03,31,03,38,4.00
2013,03,31,03,39,4.00
2013,03,31,03,40,4.00
2013,03,31,03,41,4.00
2013,03,31,03,42,4.00
2013,03,31,03,43,4.00
2013,03,31,03,44,4.00
2013,03,31,03,45,4.00
2013,03,31,03,46,4.00
2013,03,31,03,47,3.90
2013,03,31,03,48,3.90
2013,03,31,03,49,3.90
2013,03,31,03,50,3.90
2013,03,31,03,51,3.90
2013,03,31,03,52,3.90
2013,03,31,03,53,3.80
2013,03,31,03,54,3.80
2013,03,31,03,55,3.80
2013,03,31,03,56,3.80
2013,03,31,03,57,3.80
2013,03,31,03,58,3.80
2013,03,31,03,59,3.90
2013,03,31,04,00,3.90
2013,03,31,04,01,3.90
2013,03,31,04,02,3.90
2013,03,31,04,03,3.90
2013,03,31,04,04,3.90
2013,03,31,04,05,3.90
2013,03,31,04,06,3.90
2013,03,31,04,07,3.90
2013,03,31,04,08,3.90
2013,03,31,04,09,3.90
2013,03,31,04,10,3.90
2013,03,31,04,11,3.90
2013,03,31,04,12,3.80
2013,03,31,04,13,3.80
2013,03,31,04,14,3.80
2013,03,31,04,15,3.80
2013,03,31,04,16,3.80
2013,03,31,04,17,3.70
2013,03,31,04,18,3.70
2013,03,31,04,19,3.70
2013,03,31,04,20,3.70
2013,03,31,04,21,3.70
2013,03,31,04,22,3.70
2013,03,31,04,23,3.70
2013,03,31,04,24,3.70
2013,03,31,04,25,3.70
2013,03,31,04,26,3.70
2013,03,31,04,27,3.70
2013,03,31,04,28,3.60
2013,03,31,04,29,3.60
2013,03,31,04,30,3.60
2013,03,31,04,31,3.60
2013,03,31,04,32,3.60
2013,03,31,04,33,3.60
2013,03,31,04,34,3.60
2013,03,31,04,35,3.60
2013,03,31,04,36,3.60
2013,03,31,04,37,3.60
2013,03,31,04,38,3.60
2013,03,31,04,39,3.60
2013,03,31,04,40,3.50
2013,03,31,04,41,3.50
2013,03,31,04,42,3.50
2013,03,31,04,43,3.50
2013,03,31,04,44,3.50
2013,03,31,04,45,3.50
2013,03,31,04,46,3.50
2013,03,31,04,47,3.50
2013,03,31,04,48,3.50
2013,03,31,04,49,3.50
2013,03,31,04,50,3.40
2013,03,31,04,51,3.40
2013,03,31,04,52,3.40
2013,03,31,04,53,3.40
2013,03,31,04,54,3.40
2013,03,31,04,55,3.30
2013,03,31,04,56,3.30
2013,03,31,04,57,3.30
2013,03,31,04,58,3.30
2013,03,31,04,59,3.30
2013,03,31,05,00,3.30
2013,03,31,05,01,3.30
2013,03,31,05,02,3.30
2013,03,31,05,03,3.30
2013,03,31,05,04,3.30
2013,03,31,05,05,3.30
2013,03,31,05,06,3.30
2013,03,31,05,07,3.30
2013,03,31,05,08,3.30
2013,03,31,05,09,3.30
2013,03,31,05,10,3.30
2013,03,31,05,11,3.30
2013,03,31,05,12,3.30
2013,03,31,05,13,3.20
2013,03,31,05,14,3.20
2013,03,31,05,15,3.20
2013,03,31,05,16,3.20
2013,03,31,05,17,3.20
2013,03,31,05,18,3.20
2013,03,31,05,19,3.20
2013,03,31,05,20,3.20
2013,03,31,05,21,3.20
2013,03,31,05,22,3.20
2013,03,31,05,23,3.20
2013,03,31,05,24,3.10
2013,03,31,05,25,3.10
2013,03,31,05,26,3.10
2013,03,31,05,27,3.10
2013,03,31,05,28,3.10
2013,03,31,05,29,3.10
2013,03,31,05,30,3.10
2013,03,31,05,31,3.10
2013,03,31,05,32,3.10
2013,03,31,05,33,3.10
2013,03,31,05,34,3.10
2013,03,31,05,35,3.10
2013,03,31,05,36,3.10
2013,03,31,05,37,3.10
2013,03,31,05,38,3.10
2013,03,31,05,39,3.10
2013,03,31,05,40,3.10
2013,03,31,05,41,3.10
2013,03,31,05,42,3.00
2013,03,31,05,43,3.00
2013,03,31,05,44,3.00
2013,03,31,05,45,3.00
2013,03,31,05,46,3.00
2013,03,31,05,47,3.00
2013,03,31,05,48,2.90
2013,03,31,05,49,2.90
2013,03,31,05,50,2.90
2013,03,31,05,51,2.90
2013,03,31,05,52,2.90
2013,03,31,05,53,2.90
2013,03,31,05,54,2.90
2013,03,31,05,55,2.90
2013,03,31,05,56,2.90
2013,03,31,05,57,2.90
2013,03,31,05,58,2.90
2013,03,31,05,59,2.90
2013,03,31,06,00,2.90
2013,03,31,06,01,2.90
2013,03,31,06,02,2.90
2013,03,31,06,03,2.90
2013,03,31,06,04,2.90
2013,03,31,06,05,2.90
2013,03,31,06,06,2.90
2013,03,31,06,07,2.90
2013,03,31,06,08,2.90
2013,03,31,06,09,2.90
2013,03,31,06,10,2.90
2013,03,31,06,11,2.90
2013,03,31,06,12,2.90
2013,03,31,06,13,2.90
2013,03,31,06,14,2.90
2013,03,31,06,15,2.90
2013,03,31,06,16,2.90
2013,03,31,06,17,2.90
2013,03,31,06,18,2.90
2013,03,31,06,19,2.90
2013,03,31,06,20,2.90
2013,03,31,06,21,2.90
2013,03,31,06,22,2.90
2013,03,31,06,23,2.90
2013,03,31,06,24,2.90
2013,03,31,06,25,2.90
2013,03,31,06,26,2.90
2013,03,31,06,27,2.90
2013,03,31,06,28,2.90
2013,03,31,06,29,2.90
2013,03,31,06,30,2.90
2013,03,31,06,31,2.90
2013,03,31,06,32,2.90
2013,03,31,06,33,2.90
2013,03,31,06,34,2.90
2013,03,31,06,35,2.90
2013,03,31,06,36,2.90
2013,03,31,06,37,2.90
2013,03,31,06,38,2.80
2013,03,31,06,39,2.80
2013,03,31,06,40,2.80
2013,03,31,06,41,2.80
2013,03,31,06,42,2.80
2013,03,31,06,43,2.80
2013,03,31,06,44,2.80
2013,03,31,06,45,2.70
2013,03,31,06,46,2.70
2013,03,31,06,47,2.70
2013,03,31,06,48,2.70
2013,03,31,06,49,2.70
2013,03,31,06,50,2.70
2013,03,31,06,51,2.70
2013,03,31,06,52,2.60
2013,03,31,06,53,2.60
2013,03,31,06,54,2.60
2013,03,31,06,55,2.60
2013,03,31,06,56,2.60
2013,03,31,06,57,2.60
2013,03,31,06,58,2.60
2013,03,31,06,59,2.60
2013,03,31,07,00,2.60
2013,03,31,07,01,2.60
2013,03,31,07,02,2.60
2013,03,31,07,03,2.60
2013,03,31,07,04,2.60
2013,03,31,07,05,2.60
2013,03,31,07,06,2.60
2013,03,31,07,07,2.60
2013,03,31,07,08,2.60
2013,03,31,07,09,2.70
2013,03,31,07,10,2.70
2013,03,31,07,11,2.70
2013,03,31,07,12,2.70
2013,03,31,07,13,2.70
2013,03,31,07,14,2.60
2013,03,31,07,15,2.60
2013,03,31,07,16,2.60
2013,03,31,07,17,2.60
2013,03,31,07,18,2.70
2013,03,31,07,19,2.70
2013,03,31,07,20,2.70
2013,03,31,07,21,2.70
2013,03,31,07,22,2.70
2013,03,31,07,23,2.70
2013,03,31,07,24,2.70
2013,03,31,07,25,2.70
2013,03,31,07,26,2.70
2013,03,31,07,27,2.70
2013,03,31,07,28,2.70
2013,03,31,07,29,2.70
2013,03,31,07,30,2.70
2013,03,31,07,31,2.70
2013,03,31,07,32,2.80
2013,03,31,07,33,2.80
2013,03,31,07,34,2.80
2013,03,31,07,35,2.80
2013,03,31,07,36,2.80
2013,03,31,07,37,2.80
2013,03,31,07,38,2.80
2013,03,31,07,39,2.80
2013,03,31,07,40,2.80
2013,03,31,07,41,2.80
2013,03,31,07,42,2.80
2013,03,31,07,43,2.80
2013,03,31,07,44,2.80
2013,03,31,07,45,2.80
2013,03,31,07,46,2.80
2013,03,31,07,47,2.80
2013,03,31,07,48,2.80
2013,03,31,07,49,2.80
2013,03,31,07,50,2.80
2013,03,31,07,51,2.90
2013,03,31,07,52,2.90
2013,03,31,07,53,2.90
2013,03,31,07,54,2.90
2013,03,31,07,55,2.90
2013,03,31,07,56,3.00
2013,03,31,07,57,3.00
2013,03,31,07,58,3.00
2013,03,31,07,59,3.10
2013,03,31,08,00,3.10
2013,03,31,08,01,3.10
2013,03,31,08,02,3.10
2013,03,31,08,03,3.10
2013,03,31,08,04,3.10
2013,03,31,08,05,3.20
2013,03,31,08,06,3.20
2013,03,31,08,07,3.20
2013,03,31,08,08,3.30
2013,03,31,08,09,3.30
2013,03,31,08,10,3.30
2013,03,31,08,11,3.30
2013,03,31,08,12,3.40
2013,03,31,08,13,3.40
2013,03,31,08,14,3.40
2013,03,31,08,15,3.40
2013,03,31,08,16,3.50
2013,03,31,08,17,3.50
2013,03,31,08,18,3.50
2013,03,31,08,19,3.60
2013,03,31,08,20,3.60
2013,03,31,08,21,3.60
2013,03,31,08,22,3.70
2013,03,31,08,23,3.70
2013,03,31,08,24,3.70
2013,03,31,08,25,3.80
2013,03,31,08,26,3.80
2013,03,31,08,27,3.90
2013,03,31,08,28,3.90
2013,03,31,08,29,3.90
2013,03,31,08,30,4.00
2013,03,31,08,31,4.00
2013,03,31,08,32,4.10
2013,03,31,08,33,4.10
2013,03,31,08,34,4.10
2013,03,31,08,35,4.20
2013,03,31,08,36,4.20
2013,03,31,08,37,4.20
2013,03,31,08,38,4.30
2013,03,31,08,39,4.30
2013,03,31,08,40,4.40
2013,03,31,08,41,4.40
2013,03,31,08,42,4.50
2013,03,31,08,43,4.60
2013,03,31,08,44,4.60
2013,03,31,08,45,4.70
2013,03,31,08,46,4.70
2013,03,31,08,47,4.80
2013,03,31,08,48,4.80
2013,03,31,08,49,4.90
2013,03,31,08,50,5.00
2013,03,31,08,51,5.00
2013,03,31,08,52,5.10
2013,03,31,08,53,5.20
2013,03,31,08,54,5.20
2013,03,31,08,55,5.30
2013,03,31,08,56,5.40
2013,03,31,08,57,5.40
2013,03,31,08,58,5.50
2013,03,31,08,59,5.60
2013,03,31,09,00,5.60
2013,03,31,09,01,5.70
2013,03,31,09,02,5.70
2013,03,31,09,03,5.80
2013,03,31,09,04,5.80
2013,03,31,09,05,5.90
2013,03,31,09,06,5.90
2013,03,31,09,07,6.00
2013,03,31,09,08,6.10
2013,03,31,09,09,6.10
2013,03,31,09,10,6.20
2013,03,31,09,11,6.30
2013,03,31,09,12,6.30
2013,03,31,09,13,6.30
2013,03,31,09,14,6.40
2013,03,31,09,15,6.50
2013,03,31,09,16,6.50
2013,03,31,09,17,6.60
2013,03,31,09,18,6.60
2013,03,31,09,19,6.70
2013,03,31,09,20,6.70
2013,03,31,09,21,6.80
2013,03,31,09,22,6.90
2013,03,31,09,23,6.90
2013,03,31,09,24,6.90
2013,03,31,09,25,7.00
2013,03,31,09,26,7.20
2013,03,31,09,27,7.30
2013,03,31,09,28,7.40
2013,03,31,09,29,7.50
2013,03,31,09,30,7.60
2013,03,31,09,31,7.70
2013,03,31,09,32,7.80
2013,03,31,09,33,7.90
2013,03,31,09,34,8.00
2013,03,31,09,35,8.10
2013,03,31,09,36,8.20
2013,03,31,09,37,8.30
2013,03,31,09,38,8.40
2013,03,31,09,39,8.40
2013,03,31,09,40,8.50
2013,03,31,09,41,8.60
2013,03,31,09,42,8.60
2013,03,31,09,43,8.70
2013,03,31,09,44,8.70
2013,03,31,09,45,8.80
2013,03,31,09,46,8.80
2013,03,31,09,47,8.80
2013,03,31,09,48,8.90
2013,03,31,09,49,8.90
2013,03,31,09,50,8.90
2013,03,31,09,51,9.00
2013,03,31,09,52,9.10
2013,03,31,09,53,9.10
2013,03,31,09,54,9.20
2013,03,31,09,55,9.20
2013,03,31,09,56,9.30
2013,03,31,09,57,9.30
2013,03,31,09,58,9.40
2013,03,31,09,59,9.50
2013,03,31,10,00,9.50
2013,03,31,10,01,9.60
2013,03,31,10,02,9.70
2013,03,31,10,03,9.80
2013,03,31,10,04,9.80
2013,03,31,10,05,9.90
2013,03,31,10,06,10.00
2013,03,31,10,07,10.10
2013,03,31,10,08,10.10
2013,03,31,10,09,10.20
2013,03,31,10,10,10.30
2013,03,31,10,11,10.40
2013,03,31,10,12,10.50
2013,03,31,10,13,10.50
2013,03,31,10,14,10.60
2013,03,31,10,15,10.70
2013,03,31,10,16,10.80
2013,03,31,10,17,10.80
2013,03,31,10,18,10.90
2013,03,31,10,19,10.90
2013,03,31,10,20,11.00
2013,03,31,10,21,11.10
2013,03,31,10,22,11.20
2013,03,31,10,23,11.20
2013,03,31,10,24,11.30
2013,03,31,10,25,11.50
2013,03,31,10,26,11.60
2013,03,31,10,27,11.60
2013,03,31,10,28,11.70
2013,03,31,10,29,11.80
2013,03,31,10,30,11.90
2013,03,31,10,31,12.00
2013,03,31,10,32,12.10
2013,03,31,10,33,12.10
2013,03,31,10,34,12.20
2013,03,31,10,35,12.20
2013,03,31,10,36,12.30
2013,03,31,10,37,12.30
2013,03,31,10,38,12.40
2013,03,31,10,39,12.40
2013,03,31,10,40,12.50
2013,03,31,10,41,12.50
2013,03,31,10,42,12.60
2013,03,31,10,43,12.60
2013,03,31,10,44,12.60
2013,03,31,10,45,12.70
2013,03,31,10,46,12.80
2013,03,31,10,47,12.80
2013,03,31,10,48,12.80
2013,03,31,10,49,12.90
2013,03,31,10,50,12.90
2013,03,31,10,51,12.90
2013,03,31,10,52,13.00
2013,03,31,10,53,13.00
2013,03,31,10,54,13.10
2013,03,31,10,55,13.10
2013,03,31,10,56,13.10
2013,03,31,10,57,13.10
2013,03,31,10,58,13.20
2013,03,31,10,59,13.20
2013,03,31,11,00,13.30
2013,03,31,11,01,13.30
2013,03,31,11,02,13.40
2013,03,31,11,03,13.50
2013,03,31,11,04,13.50
2013,03,31,11,05,13.60
2013,03,31,11,06,13.70
2013,03,31,11,07,13.70
2013,03,31,11,08,13.70
2013,03,31,11,09,13.70
2013,03,31,11,10,13.70
2013,03,31,11,11,13.70
2013,03,31,11,12,13.70
2013,03,31,11,13,13.70
2013,03,31,11,14,13.80
2013,03,31,11,15,13.80
2013,03,31,11,16,13.80
2013,03,31,11,17,13.80
2013,03,31,11,18,13.80
2013,03,31,11,19,13.90
2013,03,31,11,20,13.90
2013,03,31,11,21,14.00
2013,03,31,11,22,14.00
2013,03,31,11,23,14.10
2013,03,31,11,24,14.20
2013,03,31,11,25,14.20
2013,03,31,11,26,14.30
2013,03,31,11,27,14.30
2013,03,31,11,28,14.40
2013,03,31,11,29,14.40
2013,03,31,11,30,14.50
2013,03,31,11,31,14.50
2013,03,31,11,32,14.50
2013,03,31,11,33,14.50
2013,03,31,11,34,14.50
2013,03,31,11,35,14.50
2013,03,31,11,36,14.60
2013,03,31,11,37,14.60
2013,03,31,11,38,14.60
2013,03,31,11,39,14.60
2013,03,31,11,40,14.60
2013,03,31,11,41,14.60
2013,03,31,11,42,14.60
2013,03,31,11,43,14.70
2013,03,31,11,44,14.80
2013,03,31,11,45,14.80
2013,03,31,11,46,14.90
2013,03,31,11,47,15.00
2013,03,31,11,48,15.00
2013,03,31,11,49,15.00
2013,03,31,11,50,15.00
2013,03,31,11,51,15.00
2013,03,31,11,52,15.00
2013,03,31,11,53,15.10
2013,03,31,11,54,15.20
2013,03,31,11,55,15.20
2013,03,31,11,56,15.30
2013,03,31,11,57,15.30
2013,03,31,11,58,15.30
2013,03,31,11,59,15.30
2013,03,31,12,00,15.30
2013,03,31,12,01,15.30
2013,03,31,12,02,15.40
2013,03,31,12,03,15.40
2013,03,31,12,04,15.40
2013,03,31,12,05,15.50
2013,03,31,12,06,15.60
2013,03,31,12,07,15.70
2013,03,31,12,08,15.70
2013,03,31,12,09,15.80
2013,03,31,12,10,15.90
2013,03,31,12,11,15.90
2013,03,31,12,12,15.90
2013,03,31,12,13,15.90
2013,03,31,12,14,16.00
2013,03,31,12,15,16.00
2013,03,31,12,16,16.10
2013,03,31,12,17,16.10
2013,03,31,12,18,16.10
2013,03,31,12,19,16.20
2013,03,31,12,20,16.20
2013,03,31,12,21,16.30
2013,03,31,12,22,16.40
2013,03,31,12,23,16.50
2013,03,31,12,24,16.50
2013,03,31,12,25,16.60
2013,03,31,12,26,16.70
2013,03,31,12,27,16.70
2013,03,31,12,28,16.80
2013,03,31,12,29,16.90
2013,03,31,12,30,17.00
2013,03,31,12,31,17.00
2013,03,31,12,32,17.00
2013,03,31,12,33,17.00
2013,03,31,12,34,17.00
2013,03,31,12,35,17.00
2013,03,31,12,36,17.00
2013,03,31,12,37,17.10
2013,03,31,12,38,17.10
2013,03,31,12,39,17.10
2013,03,31,12,40,17.10
2013,03,31,12,41,17.10
2013,03,31,12,42,17.10
2013,03,31,12,43,17.10
2013,03,31,12,44,17.10
2013,03,31,12,45,17.10
2013,03,31,12,46,17.00
2013,03,31,12,47,17.00
2013,03,31,12,48,16.90
2013,03,31,12,49,16.90
2013,03,31,12,50,16.90
2013,03,31,12,51,17.00
2013,03,31,12,52,17.00
2013,03,31,12,53,17.10
2013,03,31,12,54,17.20
2013,03,31,12,55,17.20
2013,03,31,12,56,17.40
2013,03,31,12,57,17.50
2013,03,31,12,58,17.60
2013,03,31,12,59,17.70
2013,03,31,13,00,17.80
2013,03,31,13,01,17.90
2013,03,31,13,02,18.00
2013,03,31,13,03,18.10
2013,03,31,13,04,18.20
2013,03,31,13,05,18.30
2013,03,31,13,06,18.40
2013,03,31,13,07,18.50
2013,03,31,13,08,18.50
2013,03,31,13,09,18.60
2013,03,31,13,10,18.60
2013,03,31,13,11,18.50
2013,03,31,13,12,18.40
2013,03,31,13,13,18.30
2013,03,31,13,14,18.20
2013,03,31,13,15,18.10
2013,03,31,13,16,18.00
2013,03,31,13,17,18.00
2013,03,31,13,18,18.00
2013,03,31,13,19,18.10
2013,03,31,13,20,18.20
2013,03,31,13,21,18.30
2013,03,31,13,22,18.50
2013,03,31,13,23,18.60
2013,03,31,13,24,18.80
2013,03,31,13,25,18.90
2013,03,31,13,26,18.90
2013,03,31,13,27,19.00
2013,03,31,13,28,19.10
2013,03,31,13,29,19.20
2013,03,31,13,30,19.20
2013,03,31,13,31,19.20
2013,03,31,13,32,19.20
2013,03,31,13,33,19.30
2013,03,31,13,34,19.30
2013,03,31,13,35,19.30
2013,03,31,13,36,19.30
2013,03,31,13,37,19.30
2013,03,31,13,38,19.40
2013,03,31,13,39,19.40
2013,03,31,13,40,19.40
2013,03,31,13,41,19.50
2013,03,31,13,42,19.60
2013,03,31,13,43,19.60
2013,03,31,13,44,19.70
2013,03,31,13,45,19.80
2013,03,31,13,46,19.80
2013,03,31,13,47,19.80
2013,03,31,13,48,19.80
2013,03,31,13,49,19.70
2013,03,31,13,50,19.70
2013,03,31,13,51,19.70
2013,03,31,13,52,19.70
2013,03,31,13,53,19.60
2013,03,31,13,54,19.60
2013,03,31,13,55,19.60
2013,03,31,13,56,19.60
2013,03,31,13,57,19.70
2013,03,31,13,58,19.70
2013,03,31,13,59,19.80
2013,03,31,14,00,19.90
2013,03,31,14,01,20.00
2013,03,31,14,02,20.10
2013,03,31,14,03,20.20
2013,03,31,14,04,20.30
2013,03,31,14,05,20.30
2013,03,31,14,06,20.40
2013,03,31,14,07,20.40
2013,03,31,14,08,20.40
2013,03,31,14,09,20.50
2013,03,31,14,10,20.60
2013,03,31,14,11,20.60
2013,03,31,14,12,20.60
2013,03,31,14,13,20.60
2013,03,31,14,14,20.60
2013,03,31,14,15,20.60
2013,03,31,14,16,20.60
2013,03,31,14,17,20.60
2013,03,31,14,18,20.50
2013,03,31,14,19,20.40
2013,03,31,14,20,20.40
2013,03,31,14,21,20.40
2013,03,31,14,22,20.40
2013,03,31,14,23,20.40
2013,03,31,14,24,20.50
2013,03,31,14,25,20.60
2013,03,31,14,26,20.60
2013,03,31,14,27,20.70
2013,03,31,14,28,20.70
2013,03,31,14,29,20.80
2013,03,31,14,30,20.80
2013,03,31,14,31,20.90
2013,03,31,14,32,20.90
2013,03,31,14,33,21.00
2013,03,31,14,34,21.00
2013,03,31,14,35,21.10
2013,03,31,14,36,21.10
2013,03,31,14,37,21.10
2013,03,31,14,38,21.20
2013,03,31,14,39,21.20
2013,03,31,14,40,21.20
2013,03,31,14,41,21.30
2013,03,31,14,42,21.30
2013,03,31,14,43,21.30
2013,03,31,14,44,21.30
2013,03,31,14,45,21.30
2013,03,31,14,46,21.30
2013,03,31,14,47,21.20
2013,03,31,14,48,21.20
2013,03,31,14,49,21.20
2013,03,31,14,50,21.20
2013,03,31,14,51,21.20
2013,03,31,14,52,21.30
2013,03,31,14,53,21.30
2013,03,31,14,54,21.40
2013,03,31,14,55,21.50
2013,03,31,14,56,21.50
2013,03,31,14,57,21.60
2013,03,31,14,58,21.60
2013,03,31,14,59,21.70
2013,03,31,15,00,21.70
2013,03,31,15,01,21.80
2013,03,31,15,02,21.80
2013,03,31,15,03,21.80
2013,03,31,15,04,21.90
2013,03,31,15,05,21.90
2013,03,31,15,06,21.90
2013,03,31,15,07,21.90
2013,03,31,15,08,21.90
2013,03,31,15,09,21.80
2013,03,31,15,10,21.80
2013,03,31,15,11,21.70
2013,03,31,15,12,21.60
2013,03,31,15,13,21.50
2013,03,31,15,14,21.40
2013,03,31,15,15,21.30
2013,03,31,15,16,21.30
2013,03,31,15,17,21.30
2013,03,31,15,18,21.30
2013,03,31,15,19,21.30
2013,03,31,15,20,21.20
2013,03,31,15,21,21.20
2013,03,31,15,22,21.30
2013,03,31,15,23,21.30
2013,03,31,15,24,21.40
2013,03,31,15,25,21.40
2013,03,31,15,26,21.50
2013,03,31,15,27,21.50
2013,03,31,15,28,21.50
2013,03,31,15,29,21.50
2013,03,31,15,30,21.50
2013,03,31,15,31,21.50
2013,03,31,15,32,21.50
2013,03,31,15,33,21.50
2013,03,31,15,34,21.40
2013,03,31,15,35,21.30
2013,03,31,15,36,21.30
2013,03,31,15,37,21.20
2013,03,31,15,38,21.20
2013,03,31,15,39,21.20
2013,03,31,15,40,21.20
2013,03,31,15,41,21.20
2013,03,31,15,42,21.20
2013,03,31,15,43,21.20
2013,03,31,15,44,21.20
2013,03,31,15,45,21.20
2013,03,31,15,46,21.20
2013,03,31,15,47,21.20
2013,03,31,15,48,21.20
2013,03,31,15,49,21.20
2013,03,31,15,50,21.20
2013,03,31,15,51,21.30
2013,03,31,15,52,21.30
2013,03,31,15,53,21.30
2013,03,31,15,54,21.30
2013,03,31,15,55,21.40
2013,03,31,15,56,21.40
2013,03,31,15,57,21.40
2013,03,31,15,58,21.40
2013,03,31,15,59,21.50
2013,03,31,16,00,21.50
2013,03,31,16,01,21.60
2013,03,31,16,02,21.60
2013,03,31,16,03,21.60
2013,03,31,16,04,21.70
2013,03,31,16,05,21.70
2013,03,31,16,06,21.80
2013,03,31,16,07,21.80
2013,03,31,16,08,21.80
2013,03,31,16,09,21.80
2013,03,31,16,10,21.80
2013,03,31,16,11,21.80
2013,03,31,16,12,21.80
2013,03,31,16,13,21.90
2013,03,31,16,14,21.90
2013,03,31,16,15,21.90
2013,03,31,16,16,21.90
2013,03,31,16,17,21.90
2013,03,31,16,18,21.80
2013,03,31,16,19,21.70
2013,03,31,16,20,21.70
2013,03,31,16,21,21.70
2013,03,31,16,22,21.70
2013,03,31,16,23,21.60
2013,03,31,16,24,21.60
2013,03,31,16,25,21.70
2013,03,31,16,26,21.70
2013,03,31,16,27,21.70
2013,03,31,16,28,21.70
2013,03,31,16,29,21.70
2013,03,31,16,30,21.70
2013,03,31,16,31,21.70
2013,03,31,16,32,21.70
2013,03,31,16,33,21.70
2013,03,31,16,34,21.70
2013,03,31,16,35,21.80
2013,03,31,16,36,21.80
2013,03,31,16,37,21.80
2013,03,31,16,38,21.80
2013,03,31,16,39,21.80
2013,03,31,16,40,21.90
2013,03,31,16,41,21.90
2013,03,31,16,42,21.90
2013,03,31,16,43,22.00
2013,03,31,16,44,22.10
2013,03,31,16,45,22.10
2013,03,31,16,46,22.20
2013,03,31,16,47,22.20
2013,03,31,16,48,22.20
2013,03,31,16,49,22.20
2013,03,31,16,50,22.20
2013,03,31,16,51,22.20
2013,03,31,16,52,22.20
2013,03,31,16,53,22.30
2013,03,31,16,54,22.30
2013,03,31,16,55,22.30
2013,03,31,16,56,22.30
2013,03,31,16,57,22.30
2013,03,31,16,58,22.30
2013,03,31,16,59,22.30
2013,03,31,17,00,22.30
2013,03,31,17,01,22.40
2013,03,31,17,02,22.40
2013,03,31,17,03,22.40
2013,03,31,17,04,22.30
2013,03,31,17,05,22.30
2013,03,31,17,06,22.20
2013,03,31,17,07,22.20
2013,03,31,17,08,22.20
2013,03,31,17,09,22.20
2013,03,31,17,10,22.10
2013,03,31,17,11,22.20
2013,03,31,17,12,22.10
2013,03,31,17,13,22.10
2013,03,31,17,14,22.10
2013,03,31,17,15,22.20
2013,03,31,17,16,22.20
2013,03,31,17,17,22.20
2013,03,31,17,18,22.20
2013,03,31,17,19,22.20
2013,03,31,17,20,22.20
2013,03,31,17,21,22.20
2013,03,31,17,22,22.20
2013,03,31,17,23,22.20
2013,03,31,17,24,22.20
2013,03,31,17,25,22.20
2013,03,31,17,26,22.20
2013,03,31,17,27,22.10
2013,03,31,17,28,22.10
2013,03,31,17,29,22.10
2013,03,31,17,30,22.20
2013,03,31,17,31,22.10
2013,03,31,17,32,22.10
2013,03,31,17,33,22.10
2013,03,31,17,34,22.10
2013,03,31,17,35,22.10
2013,03,31,17,36,22.10
2013,03,31,17,37,22.10
2013,03,31,17,38,22.10
2013,03,31,17,39,22.10
2013,03,31,17,40,22.00
2013,03,31,17,41,22.00
2013,03,31,17,42,21.90
2013,03,31,17,43,21.90
2013,03,31,17,44,21.80
2013,03,31,17,45,21.80